Theta_e
304 304 302 302 303 304 306 308 312 312 311 312 313 313 313 313 313 307 305 307 311 304 307 312 312 304 301 309 304 309 306 314 308 302 301 300 298 301 302 304 301 300 299 299 298 295 295 316 314 305 308 316 318 318
304 304 303 301 302 304 306 308 311 311 311 311 312 313 312 312 312 312 303 310 314 308 306 309 311 310 307 307 312 316 313 316 322 312 308 308 307 304 302 298 307 299 303 301 302 301 309 315 315 318 319 318 320 317
304 304 302 302 302 303 306 307 311 311 311 311 311 312 312 312 312 311 304 305 308 303 301 300 302 305 310 316 319 313 318 319 318 321 316 312 307 308 302 303 303 306 311 306 306 308 312 316 320 320 320 321 318 318
303 303 302 301 302 303 305 307 310 310 310 311 311 311 312 312 312 312 303 306 308 306 300 301 311 309 313 326 325 321 319 319 317 320 314 310 308 312 306 308 307 309 309 307 306 311 313 315 317 320 319 320 319 320
303 301 301 301 302 303 305 307 310 310 310 311 311 312 312 312 311 309 305 305 312 307 299 304 308 311 315 323 324 321 317 312 309 308 311 308 310 311 309 308 306 311 309 306 304 311 313 314 315 319 318 320 321 320
303 301 301 301 302 303 305 307 310 310 310 311 312 312 311 310 310 302 302 309 308 310 303 299 308 310 314 317 320 316 315 313 310 307 306 307 314 309 304 302 309 312 313 312 310 314 316 318 318 319 319 319 322 322
303 302 301 301 302 303 306 308 310 310 310 310 310 310 309 309 302 304 304 307 306 312 304 299 302 310 314 314 313 313 313 309 307 303 305 305 307 309 304 301 309 311 313 314 314 315 312 315 313 319 321 323 323 325
301 302 301 301 302 304 306 309 310 310 309 309 310 309 309 308 306 303 309 308 309 310 308 300 303 307 313 308 306 308 307 307 307 304 305 305 305 308 304 309 312 315 314 314 314 315 315 317 318 320 323 325 323 323
301 301 301 301 302 304 307 309 310 309 309 309 309 309 305 302 300 305 313 311 314 307 299 301 301 301 310 306 306 305 304 301 304 303 302 304 300 299 304 308 309 313 311 312 315 315 315 316 318 321 324 323 319 320
301 301 301 301 303 305 308 309 309 309 309 309 304 300 297 305 314 313 306 304 305 306 306 300 303 302 306 302 301 302 302 299 297 301 304 301 299 304 308 310 311 314 314 316 312 313 313 313 315 320 319 320 320 322
300 300 301 302 304 307 309 309 309 309 308 301 299 301 306 308 304 304 298 299 298 298 300 301 302 299 305 302 299 302 300 299 295 298 299 296 300 307 311 312 312 310 312 314 313 313 314 314 318 315 316 318 321 319
300 300 301 303 304 309 309 308 308 303 302 302 304 304 305 304 302 298 297 298 298 296 298 298 300 302 303 307 302 301 299 299 296 300 298 298 305 310 312 314 314 316 316 316 317 317 318 320 318 316 315 317 318 319
300 301 302 303 308 309 309 308 308 306 305 308 304 303 300 298 290 294 292 293 293 298 298 297 296 302 302 304 302 300 298 296 299 295 298 303 307 312 315 316 315 315 318 318 317 318 319 319 320 319 318 321 322 324
300 301 302 307 308 308 308 308 308 306 304 303 300 290 293 292 294 295 295 296 299 299 299 297 300 300 300 300 300 298 299 297 293 291 299 304 309 314 316 317 315 314 316 317 318 319 319 319 320 318 322 323 323 321
301 302 307 308 308 308 308 307 307 305 306 302 299 288 293 297 297 298 298 300 302 302 301 300 299 298 297 299 297 296 293 292 293 293 302 307 311 313 312 313 315 314 314 319 320 319 318 318 317 315 315 317 319 317
302 307 306 307 307 307 307 306 305 308 307 303 300 295 296 294 296 300 299 299 301 300 300 300 297 296 295 296 295 294 293 291 296 303 307 310 310 311 311 314 316 316 315 315 319 320 319 318 317 317 317 317 317 317
306 301 305 306 306 306 306 305 308 306 304 300 296 300 299 297 297 299 300 300 301 300 297 297 295 294 297 294 292 295 294 297 306 308 308 308 310 310 312 314 317 317 317 317 318 318 318 319 319 317 315 317 316 317
300 303 306 306 305 306 305 306 306 303 299 299 297 298 300 302 300 300 301 302 302 301 299 298 298 294 292 292 295 301 304 304 303 305 306 305 307 308 312 314 315 315 315 316 316 316 316 316 314 313 314 316 317 317
303 304 306 306 306 305 301 302 305 298 297 298 298 299 301 301 302 302 301 302 302 303 302 298 296 295 299 301 302 302 304 303 303 305 307 308 306 307 313 313 312 311 312 311 310 311 312 312 312 312 312 313 313 314
304 304 305 306 308 301 298 298 304 297 295 297 298 298 299 300 302 301 301 301 300 298 297 296 297 300 302 304 304 304 304 305 305 303 303 305 306 305 306 311 310 308 308 308 308 302 309 310 310 310 310 309 310 311
303 303 304 304 300 300 297 296 297 296 296 296 297 298 297 300 300 299 299 300 298 296 297 300 301 304 305 306 307 306 306 306 304 303 301 301 303 302 303 308 310 306 304 305 305 305 300 307 308 310 310 309 311 311
301 304 301 302 297 298 295 296 294 296 296 295 296 298 296 295 296 298 300 298 296 296 298 301 305 304 306 306 305 306 306 304 302 301 299 299 301 301 302 302 304 303 303 304 304 304 305 307 308 310 310 310 306 310
303 302 300 299 295 293 292 298 294 295 293 294 295 294 294 295 296 299 295 297 297 299 300 302 304 305 305 306 304 302 302 302 299 299 300 300 300 300 301 301 302 300 298 300 302 304 305 302 305 307 308 308 309 309
302 296 293 292 292 289 295 293 295 294 295 293 293 292 293 294 297 294 292 294 297 299 298 299 300 299 299 297 296 296 297 299 299 298 299 299 298 298 298 298 298 299 299 299 300 300 301 303 301 305 306 307 307 307
289 289 290 280 290 291 291 292 292 292 291 293 292 291 291 294 291 291 291 294 297 297 296 295 296 296 296 294 295 297 299 299 299 299 299 298 298 297 298 299 298 299 299 299 299 300 300 301 302 302 301 300 300 300
281 288 285 287 287 289 290 289 290 290 291 290 290 292 291 290 289 288 290 293 295 294 296 296 295 295 295 296 295 295 297 299 298 298 298 299 299 298 297 297 298 300 303 302 302 302 302 302 301 301 301 299 293 300
283 286 288 291 289 290 289 291 291 289 289 288 289 289 288 286 287 289 294 296 296 297 297 296 295 294 294 294 296 297 297 298 299 299 300 300 300 300 300 299 300 301 305 305 304 304 303 302 302 302 301 300 300 300
290 290 285 288 289 290 288 288 288 289 289 289 290 287 287 288 289 295 295 297 297 297 296 296 297 297 296 296 296 296 297 297 298 298 298 299 299 299 300 301 301 294 301 301 302 304 303 303 303 303 303 302 301 301
287 289 289 286 287 286 286 286 287 289 291 289 287 286 288 292 295 294 295 296 296 295 295 295 296 298 298 298 298 297 298 297 295 293 292 293 294 297 300 303 304 304 303 303 292 295 300 300 300 301 301 301 301 301
288 289 288 288 287 285 287 288 288 290 291 291 291 291 292 292 296 300 300 299 296 293 294 295 296 296 296 297 296 297 297 298 297 296 295 294 296 299 300 300 300 300 300 300 300 300 293 297 296 299 298 299 299 298
290 289 287 287 286 288 290 291 291 291 291 290 291 290 289 290 294 300 300 300 300 300 299 298 297 297 297 296 296 296 297 298 298 300 300 300 300 300 300 300 300 301 301 301 300 299 299 298 298 298 298 298 298 296
289 289 288 287 287 291 292 290 290 289 290 289 289 290 290 290 290 297 300 300 299 297 295 298 298 298 301 301 300 300 292 298 299 301 302 300 299 300 300 300 301 302 301 300 299 298 298 298 298 298 298 297 298 300
289 290 289 289 288 289 291 291 289 288 288 288 289 290 290 289 289 294 302 300 298 299 299 300 301 302 301 301 300 300 296 300 296 288 287 287 288 291 294 299 300 300 299 298 298 298 297 298 298 298 298 299 299 300
Wind_Speed
12 11 10 13 13 14 14 14 10 10 11 10 10 8 6 4 3 5 5 5 4 3 6 3 3 2 5 2 1 4 4 5 4 5 3 1 2 3 3 2 2 2 3 1 2 1 6 2 4 4 7 3 5 7
14 10 9 11 14 15 14 14 10 10 11 9 10 8 6 3 4 7 4 2 4 2 7 3 8 11 10 9 4 2 3 2 4 5 0 2 0 2 1 2 2 2 3 4 7 7 3 3 6 5 6 7 9 7
10 9 6 8 13 15 14 14 10 10 10 9 10 8 6 4 4 10 3 4 0 1 6 4 6 2 4 7 5 4 2 3 1 3 4 2 1 4 2 2 1 3 2 2 3 4 6 7 7 7 6 9 6 6
8 8 7 12 13 15 14 14 9 9 9 10 10 7 6 4 5 8 4 2 2 1 3 8 3 6 4 5 3 3 5 4 4 3 3 3 2 3 4 3 4 4 3 5 5 6 5 10 12 13 7 5 10 11
10 10 11 13 13 14 14 13 8 9 9 11 8 7 5 4 4 4 3 5 3 2 4 5 7 5 3 6 7 5 5 3 2 2 2 3 2 3 1 2 3 6 7 6 7 7 5 7 3 3 5 6 5 7
11 8 9 13 14 14 14 12 9 10 12 9 7 6 4 3 3 2 4 4 8 5 0 4 4 5 3 5 8 4 3 3 3 3 3 2 2 4 3 3 6 6 6 4 4 1 8 6 4 4 4 3 4 6
11 8 10 13 14 13 14 10 12 11 10 7 7 6 4 2 2 5 5 2 1 3 3 3 5 4 2 4 2 2 3 2 3 1 2 2 1 4 3 4 8 6 6 5 5 2 5 4 4 3 5 2 2 11
10 8 11 13 14 14 12 12 11 10 8 7 7 8 6 3 5 6 4 10 3 4 2 2 5 1 2 2 1 2 3 3 2 2 1 2 2 2 2 7 7 4 1 3 8 8 6 4 3 3 5 10 12 11
9 11 13 15 14 13 14 12 9 8 8 7 8 9 1 2 3 4 6 7 3 4 3 2 4 4 2 2 2 3 2 1 2 2 3 4 1 4 7 6 6 5 6 5 6 6 6 2 2 3 6 13 11 5
11 13 14 14 14 15 11 7 6 7 8 6 2 2 3 5 6 6 5 4 4 2 1 4 2 2 3 1 2 3 2 2 1 5 3 3 4 4 4 6 7 7 7 4 2 5 6 4 7 5 6 8 9 8
13 15 15 13 14 12 10 6 7 8 2 1 3 4 3 6 2 3 3 4 2 3 3 3 4 2 2 5 4 2 3 1 2 5 4 1 2 4 7 5 4 3 4 6 6 6 7 5 11 11 11 10 10 8
14 15 15 15 14 10 9 10 10 4 3 2 2 2 2 2 2 4 4 1 4 7 3 6 6 5 1 3 4 2 3 2 4 1 4 0 4 4 5 6 7 5 3 3 2 5 5 8 11 13 13 7 3 4
15 15 14 17 13 11 11 11 12 6 6 1 2 2 4 2 3 8 7 3 2 4 5 4 2 4 2 3 4 3 3 4 1 4 3 5 3 3 4 4 6 6 3 4 4 3 5 6 6 6 5 4 6 6
15 15 17 14 13 13 12 11 10 5 1 3 4 2 5 4 5 6 6 6 6 3 5 4 4 3 1 3 3 4 3 2 3 2 6 3 2 3 4 4 4 7 3 2 5 6 6 6 5 2 4 5 6 6
16 18 14 13 13 12 11 10 8 2 3 4 3 5 5 4 3 3 3 1 1 3 5 4 4 3 2 4 1 3 2 2 4 6 4 1 1 2 4 5 7 6 2 4 4 3 6 3 6 9 9 7 4 2
17 10 4 11 12 10 8 5 4 3 3 3 3 2 1 2 2 1 0 1 1 3 3 4 4 4 2 4 3 4 6 5 4 2 3 2 2 3 4 5 6 4 4 1 4 5 3 7 4 2 8 13 11 10
10 2 11 12 11 7 7 3 3 5 4 3 2 1 1 2 3 2 2 2 1 4 3 4 4 3 3 3 3 3 5 3 4 3 2 2 3 1 1 4 7 4 5 3 2 2 5 4 5 4 8 9 14 7
2 6 16 13 10 6 3 3 3 2 5 3 3 3 1 0 1 2 2 1 3 4 3 3 5 4 3 4 3 3 2 0 2 2 3 3 4 4 4 6 6 3 1 3 4 3 5 5 5 4 6 8 8 9
5 5 10 12 8 3 3 3 1 3 2 2 2 1 1 1 2 3 1 3 3 3 5 4 6 2 3 2 2 2 2 3 3 2 2 2 4 6 4 6 5 5 3 1 2 1 1 3 2 1 1 1 2 1
16 12 5 3 6 2 4 3 1 1 3 3 2 3 2 0 4 2 4 5 4 4 6 4 1 2 3 3 2 3 3 2 4 2 2 2 1 2 3 3 1 2 2 2 2 2 2 2 2 2 2 3 2 4
6 4 6 4 4 5 4 2 2 1 2 3 3 3 2 3 4 5 5 4 6 3 2 1 1 2 2 3 3 3 3 2 1 2 2 2 4 3 3 2 1 0 1 1 2 3 4 4 4 4 3 4 4 5
1 4 4 5 6 4 4 3 1 3 3 1 4 3 4 3 4 3 3 6 3 2 1 1 2 2 4 4 2 2 4 4 3 2 2 1 3 4 3 3 3 3 3 2 2 3 3 3 3 3 4 5 5 4
4 6 5 6 6 6 3 3 4 4 4 3 3 3 3 3 2 3 4 1 0 2 2 2 2 1 3 2 5 5 2 1 1 1 1 1 1 1 2 3 3 4 3 3 0 1 2 5 3 1 3 3 3 3
6 6 4 3 4 1 3 4 2 3 3 3 2 2 2 2 3 4 2 2 1 2 3 4 2 3 5 6 4 3 4 1 3 4 3 5 4 2 2 2 1 0 1 1 2 3 3 4 4 4 4 3 5 4
8 6 3 4 1 2 2 2 2 3 3 1 2 2 1 2 3 2 0 3 3 3 3 3 3 2 4 1 2 3 5 2 4 4 1 2 3 0 1 1 1 2 1 1 1 2 2 3 4 3 4 4 5 6
4 4 4 4 1 2 3 3 2 3 2 2 1 1 3 3 2 1 2 3 2 2 2 3 4 4 4 1 1 3 4 3 2 2 2 1 1 1 1 1 2 3 2 1 1 3 3 2 2 1 2 3 3 4
3 2 1 1 2 3 3 2 2 3 3 3 2 2 2 3 2 2 3 3 2 2 1 1 2 4 2 1 1 2 3 2 1 1 2 1 2 1 3 3 2 2 2 2 2 2 1 2 4 4 5 4 4 4
2 3 4 3 4 3 3 3 3 2 2 2 3 2 3 2 0 2 1 2 0 1 2 2 2 2 2 1 0 2 4 3 4 4 2 3 4 4 3 2 2 5 4 4 3 2 2 3 4 3 4 5 6 5
4 2 4 5 4 5 3 3 2 1 1 2 3 3 2 1 1 2 4 3 2 3 3 3 3 2 1 1 1 2 2 3 4 3 1 2 3 3 4 3 3 3 2 3 3 3 5 5 5 6 7 5 5 4
4 2 4 3 3 2 2 3 2 2 0 2 3 3 3 4 4 4 6 7 6 4 4 4 3 2 3 1 3 4 2 2 4 4 4 4 5 3 2 2 1 1 2 2 3 5 7 4 6 4 5 5 4 4
1 3 3 3 1 2 3 2 1 1 1 2 1 3 3 4 2 7 10 7 7 7 8 8 6 5 4 4 2 4 5 2 3 4 3 1 2 3 2 3 3 3 3 4 4 4 4 4 5 6 7 7 8 8
2 2 2 2 2 4 3 2 1 1 1 1 1 1 2 4 4 4 6 8 9 10 8 8 6 6 7 6 3 1 5 5 6 4 7 4 3 3 3 3 3 3 3 4 5 5 6 6 5 6 6 9 9 6
2 2 1 1 2 2 3 2 1 2 1 2 2 2 3 4 5 2 3 5 4 6 9 9 7 6 7 6 6 5 6 6 10 8 6 6 7 6 4 4 4 4 5 5 6 5 7 8 7 7 8 8 6 6
Wind_Direction
250 265 277 285 291 300 303 298 255 233 235 235 242 242 238 222 220 142 264 194 174 224 278 256 332 45 348 51 112 283 39 1 38 67 114 212 172 263 14 6 26 133 111 133 112 82 283 83 297 193 211 214 211 217
253 245 261 283 290 303 303 299 251 232 234 233 240 238 237 224 221 164 275 270 163 254 249 277 246 230 190 215 168 21 162 155 174 92 109 121 34 36 139 341 341 359 170 195 174 222 267 273 252 273 189 188 216 224
258 258 262 299 291 297 301 295 254 234 233 234 239 239 237 235 226 186 251 295 17 200 301 356 269 277 146 201 175 112 295 195 178 163 149 157 118 126 81 274 335 318 155 161 32 248 250 264 269 260 227 234 341 306
251 266 291 297 289 295 297 291 256 239 236 237 238 242 246 252 241 195 201 223 248 150 168 274 309 283 279 163 135 151 144 53 92 75 111 131 163 166 205 200 181 204 127 170 260 276 310 259 239 245 253 302 300 296
260 273 287 288 289 290 291 291 273 246 240 237 239 248 259 290 292 229 232 243 229 174 218 269 305 258 245 157 136 110 96 97 83 65 102 217 170 114 15 74 253 190 190 166 231 222 193 244 350 331 207 242 282 283
260 269 303 283 290 288 300 291 262 245 239 239 249 257 278 328 357 146 322 228 213 191 120 328 284 294 125 136 135 128 119 98 96 136 227 262 249 103 123 200 257 216 220 175 231 289 223 284 332 231 184 226 235 270
258 258 292 285 288 290 292 270 243 239 240 248 261 268 285 322 136 195 198 255 359 146 125 295 309 292 141 91 40 86 48 91 112 145 246 200 305 92 110 201 260 258 226 210 234 150 298 225 220 173 214 263 338 84
257 270 281 286 280 292 297 261 239 237 246 258 269 281 293 277 265 302 261 222 202 101 99 166 263 344 154 106 88 28 87 30 357 200 4 170 28 68 246 248 264 292 17 251 243 217 231 303 354 97 141 114 99 94
260 277 271 284 279 292 257 234 234 239 250 265 286 287 40 135 196 234 124 105 88 132 182 156 169 217 7 94 102 47 78 118 290 192 243 100 1 223 231 238 280 222 198 261 241 253 284 345 356 41 123 87 87 89
263 274 277 273 280 289 251 218 230 240 252 289 274 127 230 216 133 139 5 43 19 323 66 213 146 215 110 59 37 88 21 191 161 250 91 103 243 283 277 266 253 286 203 174 143 269 244 230 176 134 121 134 120 110
267 270 276 267 278 257 222 227 228 235 277 227 191 214 269 352 81 42 141 153 191 233 201 227 177 154 300 119 183 185 183 165 121 262 130 358 328 278 322 312 319 262 239 227 213 254 239 159 145 150 167 175 194 150
259 267 265 277 282 218 214 214 210 200 219 209 246 289 318 84 62 151 192 168 182 211 206 160 203 187 186 107 107 197 151 79 218 152 85 57 252 276 325 354 3 20 36 124 149 157 144 139 164 175 192 205 237 203
257 261 266 280 229 201 201 207 208 247 309 206 185 162 128 196 93 166 185 238 213 192 189 170 172 148 60 55 68 96 95 228 61 53 185 220 258 290 324 335 357 356 91 119 116 149 177 180 179 192 211 193 219 207
255 255 279 230 197 199 198 201 211 228 178 203 170 158 172 192 221 191 180 182 226 165 154 131 108 142 129 86 135 114 231 95 63 111 224 223 211 315 336 340 35 4 152 191 217 210 204 214 222 262 267 210 200 196
245 272 213 183 186 189 195 207 203 205 179 233 145 190 198 228 243 234 207 159 224 142 124 88 63 115 71 110 43 96 116 205 197 207 230 172 185 312 21 11 21 25 42 214 217 230 261 273 351 2 351 330 306 161
258 159 181 168 175 188 196 193 195 179 223 238 232 119 238 98 289 37 131 206 179 131 94 58 100 79 121 125 118 185 146 198 228 200 220 172 80 42 29 24 34 41 30 324 228 237 280 45 72 55 67 49 15 348
134 144 160 160 183 191 187 216 171 186 220 267 267 47 181 128 174 215 190 239 61 73 106 109 87 172 107 87 148 179 184 213 180 173 153 144 104 74 46 80 80 78 64 64 256 264 98 72 87 76 70 77 92 25
82 148 152 163 159 167 194 202 109 181 272 298 112 323 1 110 115 321 293 326 104 106 104 130 120 81 123 147 240 214 162 64 90 159 156 151 145 103 72 86 85 97 48 357 357 72 119 137 141 171 170 154 139 170
128 138 162 174 187 165 124 63 91 215 246 278 296 353 67 71 288 269 295 21 83 106 96 49 72 123 206 210 169 153 162 168 159 225 274 320 33 50 75 103 104 106 116 104 2 90 184 195 186 204 234 138 203 213
87 54 71 150 188 105 75 43 115 114 52 311 5 13 76 29 302 328 23 22 49 57 43 48 169 230 187 199 157 140 134 157 123 89 352 358 332 21 53 80 100 139 125 97 107 328 308 314 324 316 329 338 294 236
60 350 7 66 41 59 87 14 42 45 346 60 304 50 27 11 14 11 11 346 52 47 38 322 266 312 99 88 110 125 106 97 85 138 168 339 325 358 359 2 61 338 83 154 195 254 250 256 261 238 265 273 273 259
41 16 61 18 64 43 67 12 121 288 58 319 23 29 42 35 359 2 312 46 63 297 211 162 154 78 90 96 115 139 145 102 92 71 48 9 356 357 3 353 28 19 355 320 304 296 282 255 223 208 232 262 254 253
42 33 39 27 61 37 316 358 57 13 68 1 23 47 18 19 332 334 55 21 187 293 340 62 35 49 118 79 49 36 36 125 70 52 329 358 324 13 93 61 85 106 66 18 41 55 354 320 353 285 273 277 267 283
44 56 43 35 58 56 339 12 21 51 64 54 63 67 33 8 345 49 35 316 258 310 22 353 86 44 28 34 53 359 349 58 101 62 60 103 82 32 26 40 17 312 195 266 356 6 5 18 14 15 6 5 4 348
64 334 54 344 339 93 72 34 31 58 78 56 92 72 359 19 65 52 87 289 354 12 2 32 63 109 128 142 337 333 344 73 103 107 304 124 151 176 346 16 329 256 256 95 31 36 4 0 15 50 38 40 25 7
88 225 137 185 151 109 144 103 120 140 104 64 37 15 53 69 72 319 279 318 351 8 48 83 91 67 45 54 85 15 331 343 95 76 286 221 312 151 253 311 345 311 346 322 166 109 93 80 69 68 319 316 328 360
83 144 223 291 132 108 74 65 77 93 97 139 159 83 88 120 154 306 313 334 49 353 8 45 96 99 111 357 303 316 319 347 73 240 303 22 53 139 158 137 92 231 260 296 296 290 204 274 301 292 281 293 286 275
41 57 94 330 58 21 89 77 82 60 54 16 73 97 108 93 45 273 245 301 126 137 102 61 67 85 93 88 354 5 19 13 38 39 51 37 35 35 52 70 54 53 42 33 24 9 313 277 263 273 284 284 278 266
39 329 79 45 45 39 44 81 69 345 284 87 87 55 59 265 293 351 348 345 336 56 41 16 342 15 52 29 16 6 15 32 35 17 33 271 325 314 340 24 52 47 16 9 360 330 317 306 306 306 306 286 271 247
356 27 69 40 68 55 273 148 177 250 4 123 121 63 8 38 30 353 15 13 8 332 311 304 314 355 308 294 297 308 275 229 198 177 189 223 230 243 281 285 297 304 319 328 318 314 322 328 322 328 319 298 273 262
56 54 59 50 50 302 273 294 73 77 69 83 77 127 204 142 106 32 27 6 357 7 19 7 358 9 11 3 345 316 310 299 304 289 232 217 229 244 278 312 320 335 340 337 323 311 303 308 306 302 300 294 284 262
49 78 103 54 316 290 11 71 88 165 286 77 265 134 31 62 65 46 17 9 21 16 360 347 346 329 329 310 298 269 242 279 285 252 197 206 221 246 266 282 291 303 311 313 305 298 301 300 293 295 293 289 286 265
41 44 89 80 357 17 322 51 359 302 312 219 233 65 42 88 83 360 337 23 4 343 351 339 320 311 306 329 7 360 5 10 2 350 346 347 338 345 328 310 308 304 305 301 298 299 302 300 301 304 308 312 291 261